Location: Coney Island
(40.5779°N, 73.9940°W)
Time: 04:59:23
(UTC+00:00)

Daily predictions for brighter satellites

Satellite Brightness Start Highest point End
(mag) Time Altitude Azimuth Time Altitude Azimuth Time Altitude Azimuth
SPOT 3 Rocket 4.5 00:54:30 10° SE 00:59:04 33° ENE 01:03:41 10° N
IRS-1A Rocket 4.5 00:54:22 10° SSE 01:00:13 71° ENE 01:06:01 10° N
SJ-6B 3.3 00:57:52 10° S 01:01:57 65° W 01:06:00 10° NNW
Cosmos 1470 3.8 00:59:01 10° NNE 01:02:33 30° ENE 01:06:03 10° SE
USA 186 3.4 01:00:40 10° SSW 01:03:05 29° W 01:05:42 10° NNW
SL-16 R/B 2.5 01:02:43 10° S 01:08:05 45° ESE 01:13:28 10° NE
Cosmos 2360 Rocket 3.5 01:05:46 10° SE 01:09:45 20° E 01:13:44 10° NE
Cosmos 2322 Rocket 2.8 01:05:43 10° S 01:10:52 37° ESE 01:16:03 10° NE
BREEZE-M DEB (TANK) 2.2 01:10:47 10° SW 01:12:59 42° SE 01:15:52 10° ENE
Cosmos 1315 Rocket 3.7 01:10:15 10° N 01:14:04 35° ENE 01:17:48 10° SE
SL-24 DEB 4.3 01:09:56 10° S 01:14:39 89° WNW 01:19:26 10° N
Cosmos 676 Rocket 4.3 01:11:26 10° N 01:16:41 55° ENE 01:21:53 10° SE
Ariane Rocket 3.1 01:12:19 10° SSE 01:17:25 87° WSW 01:22:33 10° NNW
Cosmos 1954 Rocket 4.3 01:12:16 10° NNW 01:17:33 58° ENE 01:22:44 10° SSE
ATLAS 2A CENTAUR R/B 4.4 01:05:17 10° SW 01:17:44 19° S 01:23:10 10° SE
Cosmos 2227 4.3 01:12:10 10° NNW 01:17:45 63° ENE 01:23:15 10° SE
OBJECT-B 2.8 01:16:37 10° SSW 01:19:24 27° W 01:22:12 10° NW
Meteor 1-21 4.3 01:14:10 10° S 01:19:43 59° E 01:25:15 10° NNE
Aureole 2 Rocket 4.2 01:20:13 10° WNW 01:21:53 17° WSW 01:23:32 10° SSW
Okean 1 Rocket 3.3 01:18:28 10° N 01:22:45 53° E 01:27:01 10° SSE
Cosmos 1934 Rocket 4.1 01:17:18 10° N 01:23:24 80° W 01:29:34 10° S
USA 238 DEB 4.0 01:17:02 10° SW 01:23:32 72° NW 01:30:22 10° NNE
USA 238 4.0 01:17:09 10° SW 01:23:38 73° NW 01:30:28 10° NNE
Resurs 1-3 3.9 01:19:24 10° S 01:23:46 71° WSW 01:28:10 10° NNW
USA 215 4.5 01:20:26 10° E 01:24:32 17° ESE 01:28:37 10° SSE
Cosmos 1726 2.3 01:22:57 10° N 01:26:32 53° E 01:29:47 12° SSE
Cosmos 1980 Rocket 4.1 01:24:08 10° WSW 01:29:14 34° WNW 01:34:19 10° N
Cosmos 220 Rocket 4.2 01:25:07 10° SSW 01:29:25 76° WNW 01:33:42 10° NNE
Cosmos 1378 Rocket 3.7 01:25:28 10° S 01:29:47 80° W 01:34:11 10° N
BREEZE-M DEB (TANK) 2.1 01:28:12 10° SSW 01:30:14 26° SE 01:32:41 10° ENE
Okean 2 3.4 01:28:25 10° S 01:32:30 86° W 01:36:36 10° N
Cosmos 1758 3.8 01:28:50 10° N 01:32:38 42° ENE 01:35:36 15° SE
Cosmos 1140 Rocket 4.2 01:27:36 10° NNW 01:32:42 52° WSW 01:37:44 10° S
CENTAUR R/B 3.0 01:28:55 10° SW 01:34:39 63° NW 01:41:31 10° NNE
Lacrosse 5 rocket 2.2 01:35:40 10° S 01:38:36 22° SE 01:41:29 10° ENE
Cosmos 1707 2.6 01:39:30 10° S 01:43:21 84° E 01:47:15 10° N
Cosmos 292 Rocket 3.8 01:38:48 10° SSW 01:43:38 90° W 01:48:29 10° NNE
Meteor 2-10 4.4 01:40:49 10° NNW 01:45:49 63° W 01:50:54 10° S
Cosmos 1727 Rocket 4.0 01:40:53 10° S 01:47:08 67° E 01:53:22 10° NNE
Cosmos 1844 Rocket 3.9 01:43:49 10° N 01:48:43 29° NE 01:52:38 14° ESE
NOSS 8 (A) 4.2 01:45:29 10° SSW 01:49:11 86° ESE 01:52:13 10° NE
Meteor 2-20 Rocket 4.5 01:44:07 10° S 01:50:10 65° E 01:56:12 10° NNE
SPOT 5 3.9 01:50:49 17° ESE 01:54:02 33° ENE 01:58:29 10° N
Cosmos 1605 Rocket 4.3 01:48:16 10° N 01:54:40 73° W 02:00:58 10° S
FALCON 9 DEB 3.0 01:55:16 10° SW 01:58:41 84° SE 02:02:07 10° NE
Cosmos 1953 3.1 01:56:35 10° N 02:00:24 37° ENE 02:02:13 24° SE
Resurs 01 Rocket 2.4 01:56:22 10° S 02:00:37 49° W 02:04:55 10° NNW
Cosmos 1452 Rocket 3.5 01:55:36 10° SSW 02:00:52 88° WNW 02:06:12 10° NNE
Cosmos 2263 Rocket 3.0 01:56:25 10° NW 02:01:53 48° WSW 02:06:51 12° S
Cosmos 1025 Rocket 3.9 02:00:33 23° SE 02:02:24 32° E 02:06:19 10° NNE
CARTOSAT-1 3.8 02:02:17 23° SE 02:04:43 54° ENE 02:08:56 10° N
Terra 3.0 02:02:47 19° ESE 02:05:11 28° ENE 02:09:14 10° N
IGS 5A 4.4 02:01:55 11° S 02:05:46 43° W 02:09:46 10° NNW
USA 245 3.9 02:03:19 21° SSE 02:06:28 84° ENE 02:11:59 10° N
In-Cosmos 22 4.1 02:05:14 10° S 02:10:31 82° W 02:15:50 10° N
SPOT 1/Viking Rocket 3.6 02:06:53 18° S 02:10:46 80° WSW 02:15:56 10° NNW
Lacrosse 5 1.9 02:05:43 10° NW 02:10:48 77° SW 02:13:41 26° SE
Cosmos 1626 2.8 02:10:37 30° SE 02:11:34 35° E 02:14:57 10° NNE
Cosmos 1975 Rocket 2.9 02:09:39 17° S 02:12:59 84° E 02:17:24 10° N
Cosmos 1850 Rocket 4.1 02:08:34 10° NNW 02:13:52 68° ENE 02:16:49 26° SSE
Cosmos 2333 Rocket 2.9 02:14:46 24° SE 02:17:08 33° ESE 02:22:13 10° NE
Cosmos 1461 3.8 02:14:17 10° NNW 02:18:12 37° NE 02:19:59 24° E
Geosat 4.1 02:15:36 26° SE 02:18:26 68° ENE 02:23:27 10° NNW
Spot 2 Rocket 3.4 02:18:25 24° SSE 02:21:31 90° E 02:26:37 10° NNW
KORONAS-FOTON 3.8 02:21:34 23° SSW 02:23:52 78° W 02:27:41 10° N
Cosmos 1459 Rocket 3.9 02:18:36 10° N 02:24:39 69° E 02:28:08 26° SSE
Cosmos 1331 Rocket 3.9 02:22:28 18° S 02:26:24 70° ESE 02:31:39 10° NNE
ERS-1 Rocket 3.0 02:24:36 29° SSE 02:27:10 68° ENE 02:32:11 10° N
Cosmos 1000 Rocket 4.4 02:24:18 17° S 02:29:06 84° E 02:35:16 10° N
Cosmos 2219 Rocket 2.8 02:29:35 29° SE 02:31:26 37° ESE 02:36:37 10° NE
ATLAS CENTAUR R/B 3.3 02:29:02 10° N 02:32:34 23° NE 02:34:48 16° E
Cosmos 1844 4.0 02:27:54 10° NNW 02:33:21 52° ENE 02:35:57 29° SE
ARIANE 5 R/B 2.8 02:36:13 30° S 02:38:18 67° WSW 02:42:46 10° NNW
Meteor 1-24 Rocket 4.5 02:37:25 28° ESE 02:38:41 32° E 02:43:25 10° NNE
Cosmos 2061 Rocket 4.2 02:35:14 10° N 02:41:36 60° E 02:44:36 32° SSE
Meteor 2-11 Rocket 4.4 02:36:22 10° N 02:42:31 85° E 02:45:42 30° S
Cosmos 1674 3.7 02:41:23 18° SW 02:43:44 41° W 02:47:16 10° N
Aureole 1 Rocket 4.1 02:37:55 10° NNW 02:43:57 82° ENE 02:47:54 30° SSE
Cosmos 1302 Rocket 4.2 02:43:00 36° SSE 02:44:42 50° ESE 02:49:46 10° NNE
ATLAS 3B R/B 2.5 02:39:16 14° SSW 02:44:56 63° ESE 02:51:32 10° NE
Cosmos 1741 Rocket 4.2 02:40:52 10° NNW 02:46:05 65° WSW 02:48:30 32° S
Cosmos 2237 Rocket 4.1 02:47:42 13° E 02:47:42 13° E 02:49:44 10° ENE
Celestis-02/Orion 38 4.5 02:49:22 39° SSE 02:51:20 84° ENE 02:56:30 10° NNW
Cosmos 2123 Rocket 3.9 02:48:00 29° S 02:51:27 78° E 02:57:47 10° N
SL-16 R/B 4.3 02:47:38 10° WSW 02:52:22 27° NW 02:57:08 10° N
Cosmos 2360 Rocket 2.8 02:47:43 10° SW 02:53:14 55° WNW 02:58:48 10° NNE
Cosmos 2322 Rocket 3.9 02:49:50 10° WSW 02:54:55 32° WNW 03:00:01 10° N
Cosmos 1300 3.1 02:51:32 10° N 02:55:13 45° E 02:55:23 44° E
H-2A R/B 3.3 02:53:47 10° NNE 02:57:53 83° E 02:58:45 54° S
Cosmos 1544 Rocket 3.7 02:54:09 10° NNW 02:58:36 73° W 02:59:55 44° SSW
SL-24 R/B 4.3 02:57:57 10° N 03:02:46 69° E 03:03:58 49° SSE
Cosmos 1455 Rocket 4.2 02:59:22 10° NNW 03:03:28 37° W 03:05:24 25° SW
Cosmos 2233 Rocket 4.3 02:58:42 10° N 03:04:42 53° E 03:06:48 37° SE
Cosmos 1346 Rocket 4.0 03:05:41 28° ENE 03:05:41 28° ENE 03:08:40 10° NNE
USA 215 3.1 03:01:38 10° NE 03:08:11 75° SE 03:14:43 10° SW
COSMOS 2428 2.7 03:06:54 41° S 03:08:44 63° ESE 03:14:25 10° NNE
Cosmos 1340 3.0 03:10:39 49° WSW 03:11:19 58° WNW 03:15:02 10° N
Cosmos 2322 3.7 03:08:15 27° SSW 03:11:28 85° WNW 03:17:10 10° NNE
BREEZE-M DEB (TANK) 3.8 03:09:53 10° NW 03:11:14 26° WNW 03:11:14 26° WNW
Cosmos 405 3.1 03:13:52 10° NNW 03:17:02 68° NW 03:17:02 68° NW
Lacrosse 5 rocket 2.6 03:14:06 10° WSW 03:17:31 36° NW 03:20:52 10° NNE
Cosmos 2278 Rocket 3.6 03:16:45 10° N 03:21:36 28° NE 03:23:55 21° E
Cosmos 2016 Rocket 4.4 03:21:26 10° NNW 03:27:23 56° W 03:29:58 33° SSW
Cosmos 1536 Rocket 4.2 03:26:46 38° SW 03:28:02 51° W 03:32:24 10° N
SPOT 5 4.4 03:30:03 22° SW 03:32:03 29° W 03:36:25 10° NW
Cosmos 968 Rocket 3.5 03:27:32 10° NNW 03:32:38 65° ENE 03:33:30 55° ESE
Cosmos 1844 Rocket 3.5 03:27:26 10° NW 03:32:43 41° WSW 03:34:17 34° SW
Cosmos 1992 Rocket 4.0 03:32:57 55° ESE 03:33:20 56° ESE 03:38:27 10° NNE
Meteor 2-5 Rocket 3.9 03:32:04 36° SW 03:34:16 63° WNW 03:39:49 10° N
Cosmos 1900 4.3 03:30:12 10° NW 03:35:03 65° WSW 03:35:33 60° SSW
Cosmos 1725 Rocket 4.4 03:33:00 10° NNW 03:38:58 53° W 03:41:21 34° SSW
USA 267 4.3 03:34:23 11° E 03:40:09 42° NNE 03:46:12 10° NW
GEOS 3 Rocket 3.9 03:39:18 43° ESE 03:40:54 63° NE 03:46:12 10° NNW
Terra 3.1 03:41:40 26° WSW 03:42:50 30° W 03:47:00 10° NW
Cosmos 2228 2.9 03:47:29 10° N 03:51:51 86° WNW 03:51:51 86° WNW
Lacrosse 5 4.2 03:51:40 10° W 03:52:53 11° WSW 03:52:53 11° WSW
Cosmos 1980 3.7 03:56:11 58° SE 03:56:35 60° ESE 04:02:11 10° NNE
Cosmos 2333 Rocket 3.6 03:56:42 13° WSW 04:01:19 36° WNW 04:06:34 10° N
BREEZE-M DEB (TANK) 3.2 03:51:57 10° WSW 04:03:25 81° NNW 04:06:47 10° NE
DNEPR-1 R/B 4.1 03:59:53 10° NW 04:03:30 49° W 04:03:30 49° W
Iridium 2 4.4 04:07:27 52° NNW 04:07:27 52° NNW 04:10:26 10° N
ATLAS CENTAUR R/B 2.4 04:07:23 10° NW 04:10:56 40° W 04:10:56 40° W
SL-8 R/B 4.3 04:10:06 10° WNW 04:13:41 44° W 04:13:41 44° W
Cosmos 2219 Rocket 3.7 04:11:14 14° WSW 04:15:24 32° WNW 04:20:28 10° N
Cosmos 2058 Rocket 3.3 04:13:17 10° N 04:17:22 63° NE 04:17:22 63° NE
Cosmos 1503 Rocket 4.0 04:14:22 10° NNW 04:19:47 74° ENE 04:20:18 68° ESE
Cosmos 389 Rocket 4.2 04:16:35 10° NNW 04:18:37 29° NW 04:18:37 29° NW
Meteor 2-10 Rocket 4.1 04:17:11 10° NNW 04:21:57 42° W 04:22:19 41° WSW
Cosmos 2034 Rocket 4.3 04:16:21 10° N 04:22:24 55° E 04:23:38 47° ESE
Cosmos 1455 3.0 04:19:14 10° N 04:22:07 49° NNW 04:22:07 49° NNW
SL-16 R/B 3.2 04:25:54 32° E 04:25:54 32° E 04:30:35 10° NE
ATLAS CENTAUR R/B 2.7 04:26:30 66° S 04:27:10 73° SE 04:38:06 10° NE
Cosmos 1726 Rocket 4.0 04:22:51 10° NNW 04:26:54 54° WNW 04:26:54 54° WNW
Spot 4 4.2 04:28:51 51° W 04:28:51 51° W 04:33:28 10° NNW
GP-B 4.5 04:25:52 10° NNE 04:29:21 29° ENE 04:29:21 29° ENE
Cosmos 2237 Rocket 2.2 04:29:30 62° SW 04:30:24 78° WNW 04:36:03 10° NNE
NOSS 3-1 (C) 4.4 04:31:32 27° E 04:31:32 27° E 04:35:32 10° NE
Cosmos 1867 3.5 04:29:15 10° NW 04:34:42 69° WSW 04:34:48 69° SW
ATLAS 3B R/B 4.3 04:30:27 10° W 04:36:05 29° NW 04:41:54 10° NNE
Thor Agena Rocket 3.8 04:33:03 10° NNE 04:38:12 55° E 04:38:12 55° E
ALOS 2 2.9 04:41:22 59° WNW 04:41:22 59° WNW 04:45:13 10° NNW
Cosmos 1892 Rocket 4.5 04:40:55 40° WNW 04:40:55 40° WNW 04:45:05 10° N
Tsikada Rocket 4.0 04:43:11 56° SE 04:44:07 63° E 04:50:13 10° NNE
SJ 16-02 3.1 04:43:40 10° N 04:47:12 24° ENE 04:47:52 23° ENE
Meteor 1-21 Rocket 4.3 04:46:49 59° WSW 04:47:34 67° W 04:53:15 10° N
SL-4 R/B 3.0 04:52:00 41° NNE 04:52:00 41° NNE 04:54:46 10° NE
Meteor 1-11 4.2 04:59:16 62° ESE 04:59:43 64° E 05:05:15 10° NNE
Cosmos 2278 Rocket 2.7 05:00:29 10° NW 05:05:45 43° WSW 05:05:45 43° WSW
Cosmos 1777 Rocket 3.9 05:05:25 10° NNW 05:10:44 86° ENE 05:11:01 80° SE
Cosmos 1626 Rocket 4.0 05:11:52 55° WNW 05:11:52 55° WNW 05:15:54 10° N
PSLV R/B 3.7 05:10:29 10° NNE 05:14:21 71° NNE 05:14:21 71° NNE
Cosmos 1892 4.2 05:18:18 31° ENE 05:18:18 31° ENE 05:21:01 10° NNE
Cosmos 1602 Rocket 3.8 05:18:27 65° NW 05:18:27 65° NW 05:22:32 10° N
NOSS 2-3 (D) 4.4 05:21:22 40° ENE 05:21:22 40° ENE 05:24:40 10° NE
USA 267 3.2 05:21:42 56° S 05:22:55 67° SW 05:29:27 10° NW
Cosmos 1758 Rocket 3.7 05:25:43 72° NNE 05:25:43 72° NNE 05:29:46 10° N
In-Cosmos 22 Rocket 4.4 05:30:08 51° SE 05:30:54 56° E 05:36:17 10° NNE
NOSS 2-3 (C) 3.7 05:37:47 65° NE 05:37:47 65° NE 05:41:47 10° NE
EO 1 Del DPAF 4.0 05:34:14 10° N 05:37:03 49° N 05:37:03 49° N
Aureole 3 3.8 05:34:39 10° N 05:37:46 60° NNW 05:37:46 60° NNW
SL-24 R/B 4.4 05:40:29 73° SW 05:40:49 77° WSW 05:46:32 10° NNW
Cosmos 1943 4.2 05:41:25 31° ESE 05:42:07 33° ESE 05:47:04 10° NE
Cosmos 1634 Rocket 4.0 05:38:12 10° N 05:44:30 75° W 05:45:48 57° SSW
Cosmos 2279 Rocket 4.1 05:39:45 10° N 05:46:00 71° E 05:47:46 48° SSE
Cosmos 1603 4.5 05:46:50 36° SE 05:47:39 38° ESE 05:52:51 10° NE
Cosmos 405 Rocket 3.8 05:48:53 37° ENE 05:48:53 37° ENE 05:51:40 10° NNE
Cosmos-2242 3.1 05:44:19 10° N 05:48:21 71° NW 05:48:21 71° NW
Cosmos 1943 Rocket 2.1 05:43:33 10° NNW 05:49:05 80° ENE 05:50:15 57° SE
Cosmos 1825 3.2 05:52:57 39° ENE 05:52:57 39° ENE 05:56:00 10° NNE
YAOGAN 11 4.2 05:54:06 68° E 05:54:19 70° ENE 05:58:46 10° N
Resurs 1-4 Rocket 2.9 05:55:09 10° NNE 06:00:08 39° E 06:01:20 35° SE
Exosat Rocket 4.0 06:01:44 49° S 06:03:44 79° ESE 06:09:20 10° NNE
CZ-2D R/B 2.7 06:04:20 10° NNE 06:09:21 46° E 06:10:33 39° SE
SL-16 R/B 3.3 06:07:45 29° W 06:09:37 36° WNW 06:14:49 10° N
USA 229 DEB 3.5 06:08:35 47° SW 06:10:35 81° NW 06:17:23 10° NNE
USA 229 3.5 06:08:42 48° SW 06:10:41 82° NW 06:17:29 10° NNE
MOZ.5/SAFIR/RUBIN 5/SL-8 3.8 06:13:18 62° SSE 06:14:04 81° ENE 06:18:50 10° N
Cosmos 468 Rocket 3.9 06:16:01 63° SW 06:16:50 80° WNW 06:22:04 10° NNE
ADEOS II 3.7 06:13:00 10° NE 06:17:20 25° E 06:19:32 19° SE
Cosmos 2221 3.3 06:13:50 10° N 06:17:59 46° E 06:18:55 39° ESE
Nadezhda 4 Rocket 4.0 06:17:10 43° SSE 06:19:14 72° E 06:25:21 10° NNE
Cosmos 1408 3.6 06:20:25 37° NW 06:20:25 37° NW 06:23:17 10° N
X-37B 2.0 06:21:11 38° NNE 06:21:11 38° NNE 06:23:36 10° ENE
NOSS 3-1 (C) 4.1 06:18:54 29° W 06:21:07 42° NW 06:26:59 10° NNE
ARGOS Delta rocket 4.3 06:15:59 10° NNE 06:21:28 67° E 06:23:00 46° SSE
Cosmos 2098 Rocket 3.9 06:20:29 42° SSE 06:22:22 65° E 06:27:20 10° NNE
SJ 16-02 2.7 06:21:57 10° NW 06:24:50 27° WNW 06:24:50 27° WNW
Cosmos 2369 Rocket 2.2 06:23:06 10° NNW 06:28:52 86° ENE 06:31:22 35° SSE
SL-16 R/B 2.7 06:26:24 26° SSE 06:30:01 69° ENE 06:36:11 10° N
Cosmos 1869 4.3 06:26:29 10° NNW 06:29:42 35° WNW 06:29:42 35° WNW
NOSS 3-1 (A) 3.5 06:28:32 41° WSW 06:30:16 61° NW 06:36:22 10° NNE
SL-4 R/B 4.5 06:28:44 10° NW 06:31:17 17° NNW 06:33:44 10° NNE
Cosmos 1606 3.8 06:31:20 10° N 06:34:59 40° ENE 06:35:59 33° ESE
Cosmos 1656 Rocket 4.1 06:29:39 10° NNW 06:35:19 62° ENE 06:39:36 17° SE
Cosmos 2263 4.3 06:30:22 10° NNW 06:36:03 72° ENE 06:39:38 23° SSE
Cosmos 1763 Rocket 3.8 06:35:28 44° WSW 06:36:35 53° WNW 06:41:36 10° N
Cosmos 1437 Rocket 2.5 06:33:39 10° N 06:37:33 89° W 06:37:37 87° S
Cosmos 1242 Rocket 3.3 06:36:45 10° N 06:40:14 47° ENE 06:40:52 41° ESE
Cosmos 2058 2.9 06:40:52 61° W 06:41:04 62° W 06:45:07 10° N
USA 290 3.9 06:42:13 25° ESE 06:42:13 25° ESE 06:44:53 10° NE
ATLAS 5 CENTAUR R/B 2.3 06:48:01 33° SE 06:48:29 34° ESE 06:52:16 10° NE
DELTA 2 R/B (1) 3.6 06:48:29 45° SW 06:49:54 60° SSE 06:55:22 10° E
Aureole 3 Rocket 3.4 06:49:56 10° N 06:53:47 65° E 06:56:17 28° SSE
Cosmos 1437 3.8 06:52:14 10° N 06:54:49 33° ENE 06:55:00 33° E
ADEOS Rocket 3.8 06:48:29 10° SSE 06:55:52 64° ENE 07:02:36 10° N
Cosmos 1092 Rocket 3.9 06:54:17 33° S 06:57:14 84° E 07:03:24 10° N
Helios 1A 4.4 06:59:24 23° W 06:59:24 23° W 07:02:18 10° NW
USA 307 3.2 06:58:46 45° SSE 06:59:23 49° SE 07:03:30 10° ENE
Cosmos 1633 2.3 07:03:06 70° S 07:03:28 90° ESE 07:07:00 10° N
Landsat 4 4.0 07:01:16 10° NNE 07:05:01 60° ESE 07:06:02 42° SSE
Helios 1B rocket 2.5 07:01:14 10° N 07:05:16 60° WNW 07:06:08 47° SW
IRS-1D 3.8 07:04:31 10° NNE 07:09:37 60° E 07:12:21 26° S
Cosmos 1842 Rocket 3.9 07:05:33 10° NNW 07:09:42 45° W 07:10:28 41° WSW
USA 308 2.9 07:13:55 44° SSW 07:15:05 67° SE 07:19:19 10° NE
Cosmos 1428 Rocket 4.5 07:13:10 27° S 07:16:49 85° W 07:23:09 10° N
NOSS 2-2 (D) 2.8 07:17:58 54° SSW 07:18:39 85° ESE 07:22:13 10° NE
Cosmos 841 Rocket 4.0 07:19:57 29° WSW 07:22:05 45° WNW 07:27:02 10° N
UNK 4.2 07:21:01 34° SW 07:22:10 41° W 07:26:32 10° NNW
Cosmos 540 Rocket 4.3 07:22:33 25° WSW 07:24:41 36° WNW 07:29:24 10° N
Cosmos 921 Rocket 3.5 07:24:20 33° WSW 07:25:39 44° WNW 07:29:42 10° N
Cosmos 1943 4.2 07:23:13 22° WSW 07:26:03 35° WNW 07:31:13 10° N
Cosmos 1898 Rocket 4.4 07:21:43 10° NW 07:26:12 30° W 07:27:17 27° WSW
Cosmos 1825 4.5 07:27:43 12° WNW 07:28:07 12° WNW 07:29:37 10° NW
MINOTAUR 4 R/B 4.1 07:28:57 42° SSW 07:29:46 54° WSW 07:33:16 10° NNW
Lacrosse 4 Rocket 2.4 07:25:59 10° NNW 07:29:55 45° ENE 07:33:47 10° SE
Cosmos 1937 Rocket 4.1 07:26:01 10° NW 07:30:55 38° WSW 07:33:00 27° SSW
Cosmos 1943 Rocket 4.0 07:29:46 10° WNW 07:31:43 13° W 07:31:43 13° W
USA 305 2.9 07:32:36 31° WSW 07:34:33 77° NW 07:38:49 10° NE
NPP 4.5 07:29:51 10° N 07:34:46 37° WNW 07:37:30 22° WSW
Resurs 1-4 Rocket 3.4 07:35:22 10° N 07:39:44 26° WNW 07:42:25 18° WSW
Cosmos 1933 3.3 07:37:35 10° N 07:41:41 86° W 07:44:44 17° S
Cosmos 1271 Rocket 4.5 07:42:27 10° NNE 07:45:49 31° ENE 07:49:11 10° SE
Cosmos 2151 3.5 07:45:23 26° SW 07:47:16 43° WNW 07:51:18 10° N
IRIDIUM 104 4.3 07:42:22 10° N 07:47:37 88° W 07:52:28 12° S
Cosmos 2150 Rocket 4.4 07:42:57 10° NNW 07:48:08 66° ENE 07:53:21 10° SSE
Cosmos 1809 Rocket 4.4 07:43:31 17° S 07:48:25 85° W 07:54:38 10° N
CZ-2D R/B 3.6 07:45:08 10° NNW 07:49:04 22° WNW 07:51:52 15° WSW
Cosmos 2221 4.4 07:52:55 10° NW 07:55:03 14° W 07:55:44 13° W
Meteor 1-29 4.4 07:53:07 10° NNW 07:55:55 24° WNW 07:57:07 19° WSW
Cosmos 1553 Rocket 4.0 07:49:44 10° N 07:56:04 81° W 08:02:15 10° S
IRIDIUM 114 4.3 07:51:33 10° N 07:56:46 72° W 08:01:36 12° S
USA 306 3.4 07:53:56 19° WSW 07:56:46 53° NW 08:00:56 10° NE
ADEOS II 2.8 07:52:14 10° N 07:57:05 39° WNW 08:00:27 18° SW
X-37B 2.1 07:54:35 10° WNW 07:57:33 36° N 08:00:32 10° ENE
ERBS 3.5 07:56:45 19° S 07:58:28 31° SE 08:01:23 10° ENE
S3M 4.2 07:54:19 10° N 08:00:29 74° E 08:06:41 10° SSE
CZ-2C R/B 4.1 07:57:06 10° NE 08:01:27 29° E 08:05:37 10° SSE
Cosmos 1125 Rocket 3.7 07:59:05 10° NNW 08:04:21 75° ENE 08:09:37 10° SSE
IRIDIUM 103 4.4 08:00:46 10° N 08:05:54 59° W 08:10:44 11° SSW
SeaSat 1 2.6 08:01:28 10° NNE 08:06:22 66° WNW 08:10:13 16° SW
ARIANE 5 R/B 2.6 08:03:40 10° NNE 08:08:40 75° ESE 08:13:39 10° S
Cosmos 2369 Rocket 4.0 08:09:56 10° WNW 08:12:01 12° W 08:13:05 11° WSW
SL-08 R/B 3.6 08:07:43 10° SSE 08:12:18 68° ENE 08:16:59 10° N
Cosmos 1328 Rocket 3.6 08:09:41 10° N 08:14:04 82° E 08:18:25 10° S
SL-16 R/B 4.0 08:11:30 14° WSW 08:14:07 18° W 08:18:11 10° NW
Cosmos 1862 3.8 08:10:45 10° S 08:14:43 62° E 08:18:43 10° NNE
IDEFIX/ARIANE 42P 3.0 08:11:30 10° N 08:16:31 48° WNW 08:20:56 13° SW
USA 290 4.4 08:15:00 11° W 08:16:36 15° WNW 08:18:35 10° NNW
Lacrosse 5 rocket 4.3 08:16:55 10° N 08:18:58 14° NNE 08:21:02 10° ENE
Meteor 2-21 Rocket 4.5 08:14:06 10° SSW 08:20:11 75° W 08:26:23 10° N
Meteor 1-28 Rocket 4.5 08:18:35 16° SW 08:20:36 23° W 08:23:41 10° NW
USA 281 3.3 08:14:32 10° S 08:20:58 58° WSW 08:27:28 10° NNW
IRS-1C 4.2 08:16:46 10° N 08:22:04 66° WNW 08:27:20 10° SSW
CZ-4B R/B 3.6 08:18:04 10° NNE 08:23:23 83° WNW 08:28:35 10° SSW
CZ-4C R/B 2.5 08:19:38 10° SSW 08:24:09 53° ESE 08:29:32 10° NE
GPS 2-04 Rocket1 3.2 08:23:33 14° WSW 08:26:36 38° S 08:30:06 10° ESE
FALCON 9 DEB 3.2 08:25:54 10° NW 08:29:18 77° NE 08:32:40 10° SE
ATLAS 5 CENTAUR R/B 3.1 08:29:55 10° W 08:33:08 23° NW 08:36:39 10° NNE
DELTA 2 R/B (1) 3.6 08:30:41 10° W 08:36:14 82° S 08:41:49 10° E
Cosmos 1766 Rocket 4.5 08:35:18 10° SW 08:39:16 33° WNW 08:43:21 10° N
USA 307 4.3 08:35:44 10° W 08:39:30 30° NNW 08:43:17 10° NE
Okean 3 Rocket 4.4 08:36:49 10° SW 08:40:47 33° WNW 08:44:46 10° NNW
Cosmos 1833 Rocket 3.5 08:35:33 10° S 08:40:57 49° ESE 08:46:22 10° NE
Spot 4 Rocket 4.1 08:36:03 10° NNE 08:41:13 90° W 08:46:22 10° SSW
ADEOS Rocket 4.5 08:35:45 10° SW 08:41:35 25° W 08:47:07 10° NW
Cosmos 2266 Rocket 4.1 08:35:37 10° SSW 08:41:40 60° W 08:47:40 10° N
Cosmos 1515 Rocket 3.6 08:37:22 10° N 08:41:48 89° WSW 08:46:14 10° S
Cosmos 883 Rocket 4.5 08:35:57 10° N 08:42:07 82° W 08:48:12 10° S
Cosmos 1408 Rocket 3.7 08:40:10 10° SSW 08:44:32 59° W 08:48:58 10° N
Cosmos 1151 Rocket 3.8 08:42:30 10° NNW 08:46:17 31° W 08:50:01 10° SSW
Tianhe-1 3.1 08:49:25 10° SSW 08:51:40 18° SSE 08:53:55 10° ESE
PAYLOAD A 4.0 08:48:05 10° N 08:53:06 79° WNW 08:58:17 10° SSW
FENGYUN 3A 4.1 08:50:41 10° NNE 08:56:07 69° ESE 09:01:30 10° S
